Powrót do katalogu

YUNYAO-1 16

AktywnyPogodaSSO
NORAD 60746·PAYLOAD·🇨🇳 China
Ta nazwa satelity nie została jeszcze potwierdzona przez oficjalne źródła.

Wystrzelony Aug 29, 2024 z Yellow Sea Launch Area

Loading…

Następne Przeloty (najbliższe 24 godziny)

TLE

ŚwieżeSource: Space-Track

Epoka: Sep 14, 2026, 20:28 UTC

1 60746U 24153B   26257.85342273  .00011448  00000-0  33558-3 0  9999
2 60746  97.6904  40.9681 0009204 196.1617 163.9333 15.35331226113705

Śledź YUNYAO-1 16 w czasie rzeczywistym z AllMySat

Download on the App Store